• în România
  • Lista ţărilor
  • Pe 7 zile
  • Temperatura apei
  • Hartă satelitară
  • Meteo pe hartă
  • Widget-uri
  • user-avatar
    Intrare

    Meteo pe oră la Ondjiwa

    Astăzi, 26 Iunie, Luni

    Timp Temperatura Precipitaţii Vânt Presiune Umiditate
    00:00 +15°C° 0 mm 2 m/s 667 mmHg 36%
    01:00 +14°C° 0 mm 2 m/s 667 mmHg 38%
    02:00 +13°C° 0 mm 2 m/s 667 mmHg 42%
    03:00 +12°C° 0 mm 2 m/s 667 mmHg 45%
    04:00 +12°C° 0 mm 2 m/s 667 mmHg 48%
    05:00 +12°C° 0 mm 2 m/s 667 mmHg 48%
    06:00 +12°C° 0 mm 2 m/s 667 mmHg 48%
    07:00 +13°C° 0 mm 2 m/s 668 mmHg 49%
    08:00 +17°C° 0 mm 3 m/s 669 mmHg 41%
    09:00 +21°C° 0 mm 3 m/s 669 mmHg 34%
    10:00 +26°C° 0 mm 4 m/s 670 mmHg 26%
    11:00 +28°C° 0 mm 4 m/s 670 mmHg 23%
    12:00 +30°C° 0 mm 4 m/s 670 mmHg 19%
    13:00 +33°C° 0 mm 5 m/s 670 mmHg 16%
    14:00 +33°C° 0 mm 4 m/s 669 mmHg 15%
    15:00 +33°C° 0 mm 4 m/s 669 mmHg 15%
    16:00 +33°C° 0 mm 3 m/s 668 mmHg 14%
    17:00 +27°C° 0 mm 2 m/s 667 mmHg 23%
    18:00 +23°C° 0 mm 2 m/s 667 mmHg 32%
    19:00 +18°C° 0 mm 1 m/s 666 mmHg 40%
    20:00 +18°C° 0 mm 1 m/s 666 mmHg 39%
    21:00 +17°C° 0 mm 2 m/s 667 mmHg 37%
    22:00 +16°C° 0 mm 2 m/s 667 mmHg 35%
    23:00 +16°C° 0 mm 2 m/s 667 mmHg 35%

    Mâine, 27 Iunie, Marţi

    Timp Temperatura Precipitaţii Vânt Presiune Umiditate
    00:00 +15°C° 0 mm 2 m/s 667 mmHg 36%
    01:00 +14°C° 0 mm 1 m/s 667 mmHg 36%
    02:00 +13°C° 0 mm 1 m/s 667 mmHg 38%
    03:00 +13°C° 0 mm 1 m/s 667 mmHg 40%
    04:00 +12°C° 0 mm 1 m/s 667 mmHg 41%
    05:00 +12°C° 0 mm 1 m/s 667 mmHg 43%
    06:00 +12°C° 0 mm 1 m/s 667 mmHg 44%
    07:00 +11°C° 0 mm 0 m/s 668 mmHg 45%
    08:00 +18°C° 0 mm 1 m/s 669 mmHg 36%
    09:00 +23°C° 0 mm 1 m/s 670 mmHg 27%
    10:00 +27°C° 0 mm 1 m/s 672 mmHg 18%
    11:00 +29°C° 0 mm 1 m/s 671 mmHg 16%
    12:00 +31°C° 0 mm 1 m/s 671 mmHg 15%
    13:00 +32°C° 0 mm 1 m/s 670 mmHg 14%
    14:00 +32°C° 0 mm 1 m/s 670 mmHg 14%
    15:00 +32°C° 0 mm 1 m/s 669 mmHg 14%
    16:00 +31°C° 0 mm 2 m/s 669 mmHg 14%
    17:00 +27°C° 0 mm 2 m/s 668 mmHg 19%
    18:00 +23°C° 0 mm 2 m/s 667 mmHg 25%
    19:00 +18°C° 0 mm 2 m/s 667 mmHg 30%
    20:00 +18°C° 0 mm 2 m/s 667 mmHg 30%
    21:00 +18°C° 0 mm 2 m/s 668 mmHg 30%
    22:00 +17°C° 0 mm 2 m/s 668 mmHg 30%
    23:00 +17°C° 0 mm 2 m/s 668 mmHg 31%

    Poimâine, 28 Iunie, Miercuri

    Timp Temperatura Precipitaţii Vânt Presiune Umiditate
    00:00 +16°C° 0 mm 2 m/s 668 mmHg 32%
    01:00 +15°C° 0 mm 2 m/s 667 mmHg 33%
    02:00 +15°C° 0 mm 2 m/s 667 mmHg 34%
    03:00 +14°C° 0 mm 2 m/s 667 mmHg 35%
    04:00 +13°C° 0 mm 2 m/s 666 mmHg 36%
    05:00 +13°C° 0 mm 2 m/s 667 mmHg 36%
    06:00 +13°C° 0 mm 2 m/s 668 mmHg 35%
    07:00 +13°C° 0 mm 2 m/s 668 mmHg 35%
    08:00 +17°C° 0 mm 3 m/s 669 mmHg 29%
    09:00 +21°C° 0 mm 3 m/s 670 mmHg 23%
    10:00 +26°C° 0 mm 3 m/s 671 mmHg 17%
    11:00 +27°C° 0 mm 3 m/s 671 mmHg 16%
    12:00 +29°C° 0 mm 2 m/s 670 mmHg 14%
    13:00 +31°C° 0 mm 1 m/s 670 mmHg 13%
    14:00 +31°C° 0 mm 1 m/s 669 mmHg 13%
    15:00 +31°C° 0 mm 1 m/s 669 mmHg 13%
    16:00 +29°C° 0 mm 0 m/s 668 mmHg 12%
    17:00 +27°C° 0 mm 1 m/s 668 mmHg 19%
    18:00 +23°C° 0 mm 1 m/s 667 mmHg 26%
    19:00 +18°C° 0 mm 2 m/s 666 mmHg 33%
    20:00 +18°C° 0 mm 2 m/s 667 mmHg 30%
    21:00 +17°C° 0 mm 2 m/s 667 mmHg 28%
    22:00 +17°C° 0 mm 3 m/s 668 mmHg 25%
    23:00 +17°C° 0 mm 3 m/s 668 mmHg 26%

    29 Iunie, Joi

    Timp Temperatura Precipitaţii Vânt Presiune Umiditate
    00:00 +16°C° 0 mm 3 m/s 667 mmHg 27%
    01:00 +14°C° 0 mm 3 m/s 667 mmHg 28%
    02:00 +14°C° 0 mm 3 m/s 667 mmHg 30%
    03:00 +14°C° 0 mm 3 m/s 667 mmHg 32%
    04:00 +13°C° 0 mm 3 m/s 667 mmHg 35%
    05:00 +13°C° 0 mm 3 m/s 668 mmHg 37%
    06:00 +14°C° 0 mm 2 m/s 668 mmHg 40%
    07:00 +14°C° 0 mm 2 m/s 668 mmHg 43%
    08:00 +18°C° 0 mm 3 m/s 670 mmHg 35%
    09:00 +22°C° 0 mm 4 m/s 671 mmHg 28%
    10:00 +27°C° 0 mm 5 m/s 672 mmHg 21%
    11:00 +29°C° 0 mm 5 m/s 671 mmHg 19%
    12:00 +32°C° 0 mm 5 m/s 671 mmHg 17%
    13:00 +33°C° 0 mm 4 m/s 670 mmHg 15%
    14:00 +33°C° 0 mm 4 m/s 670 mmHg 15%
    15:00 +33°C° 0 mm 3 m/s 669 mmHg 15%
    16:00 +33°C° 0 mm 3 m/s 669 mmHg 15%
    17:00 +28°C° 0 mm 3 m/s 669 mmHg 19%
    18:00 +25°C° 0 mm 3 m/s 668 mmHg 23%
    19:00 +21°C° 0 mm 3 m/s 668 mmHg 28%
    20:00 +20°C° 0 mm 3 m/s 668 mmHg 29%
    21:00 +19°C° 0 mm 3 m/s 668 mmHg 30%
    22:00 +19°C° 0 mm 3 m/s 669 mmHg 32%
    23:00 +18°C° 0 mm 3 m/s 669 mmHg 34%

    30 Iunie, Vineri

    Timp Temperatura Precipitaţii Vânt Presiune Umiditate
    00:00 +17°C° 0 mm 3 m/s 668 mmHg 36%
    01:00 +16°C° 0 mm 3 m/s 668 mmHg 38%
    02:00 +15°C° 0 mm 2 m/s 668 mmHg 40%
    03:00 +15°C° 0 mm 2 m/s 668 mmHg 42%
    04:00 +14°C° 0 mm 2 m/s 668 mmHg 44%
    05:00 +14°C° 0 mm 2 m/s 668 mmHg 45%
    06:00 +14°C° 0 mm 2 m/s 669 mmHg 45%
    07:00 +14°C° 0 mm 2 m/s 669 mmHg 45%
    08:00 +17°C° 0 mm 3 m/s 670 mmHg 38%
    09:00 +21°C° 0 mm 4 m/s 671 mmHg 30%
    10:00 +26°C° 0 mm 5 m/s 672 mmHg 22%
    11:00 +28°C° 0 mm 4 m/s 672 mmHg 20%
    12:00 +29°C° 0 mm 4 m/s 671 mmHg 18%
    13:00 +32°C° 0 mm 4 m/s 671 mmHg 15%
    14:00 +31°C° 0 mm 3 m/s 670 mmHg 15%
    15:00 +31°C° 0 mm 3 m/s 670 mmHg 16%
    16:00 +31°C° 0 mm 2 m/s 669 mmHg 16%
    17:00 +28°C° 0 mm 2 m/s 669 mmHg 20%
    18:00 +24°C° 0 mm 2 m/s 669 mmHg 25%
    19:00 +20°C° 0 mm 2 m/s 668 mmHg 29%
    20:00 +19°C° 0 mm 2 m/s 668 mmHg 31%
    21:00 +19°C° 0 mm 3 m/s 669 mmHg 32%
    22:00 +18°C° 0 mm 3 m/s 669 mmHg 33%
    23:00 +18°C° 0 mm 3 m/s 669 mmHg 34%

    1 Iulie, Sâmbătă

    Timp Temperatura Precipitaţii Vânt Presiune Umiditate
    00:00 +17°C° 0 mm 3 m/s 669 mmHg 36%
    01:00 +16°C° 0 mm 3 m/s 668 mmHg 37%
    02:00 +16°C° 0 mm 3 m/s 668 mmHg 38%
    03:00 +16°C° 0 mm 3 m/s 668 mmHg 40%
    04:00 +14°C° 0 mm 3 m/s 668 mmHg 42%
    05:00 +14°C° 0 mm 3 m/s 669 mmHg 43%
    06:00 +13°C° 0 mm 3 m/s 669 mmHg 45%
    07:00 +13°C° 0 mm 3 m/s 669 mmHg 47%
    08:00 +18°C° 0 mm 3 m/s 670 mmHg 39%
    09:00 +22°C° 0 mm 4 m/s 671 mmHg 32%
    10:00 +26°C° 0 mm 5 m/s 672 mmHg 24%
    11:00 +28°C° 0 mm 5 m/s 671 mmHg 21%
    12:00 +30°C° 0 mm 4 m/s 671 mmHg 19%
    13:00 +32°C° 0 mm 4 m/s 670 mmHg 16%
    14:00 +31°C° 0 mm 3 m/s 670 mmHg 16%
    15:00 +31°C° 0 mm 3 m/s 670 mmHg 15%
    16:00 +31°C° 0 mm 3 m/s 669 mmHg 15%
    17:00 +27°C° 0 mm 3 m/s 669 mmHg 19%
    18:00 +24°C° 0 mm 2 m/s 668 mmHg 24%
    19:00 +20°C° 0 mm 2 m/s 668 mmHg 28%
    20:00 +19°C° 0 mm 2 m/s 668 mmHg 30%
    21:00 +18°C° 0 mm 2 m/s 668 mmHg 31%
    22:00 +18°C° 0 mm 3 m/s 669 mmHg 33%
    23:00 +17°C° 0 mm 3 m/s 669 mmHg 35%
    Arată mai mult